Regional Weather Roundup
Issued by NWS

Home | Current Version | Previous Version | Graphics & Text | Print | Product List | Glossary On
Versions: 1 2 3 4 5 6 7 8 9 10 11 12 13 14 15 16 17 18 19 20 21 22 23 24 25 26 27 28 29 30 31 32 33 34 35 36 37 38 39 40 41 42 43 44 45 46 47 48 49 50
000
ASUS43 KDTX 230510
RWRMI
MICHIGAN HOURLY REGIONAL WEATHER ROUNDUP
NATIONAL WEATHER SERVICE DETROIT/PONTIAC MI
100 AM EDT TUE SEP 23 2014

NOTE: "FAIR" INDICATES FEW OR NO CLOUDS BELOW 12,000 FEET WITH NO
SIGNIFICANT WEATHER AND/OR OBSTRUCTION TO VISIBILITY.

MIZ047>049-052>055-059>063-066>070-074>076-081>083-230600-
SOUTHEAST LOWER MICHIGAN

CITY           SKY/WX    TMP DP  RH WIND       PRES   REMARKS
ADRIAN         CLEAR     46  43  89 CALM      30.28F
ALMA           CLEAR     49  46  92 SW5       30.25S
ANN ARBOR      CLEAR     40  38  93 CALM      30.27S FOG
BAD AXE        CLEAR     46  45  96 CALM      30.23R
CARO           CLEAR     44  44  98 CALM      30.23S
DETROIT CITY   CLEAR     52  44  74 CALM      30.27R
DETROIT        PTCLDY    49  44  83 SW3       30.27S
FLINT          CLEAR     49  44  83 SW5       30.26S
GROSSE ILE     CLEAR     50  46  87 CALM      30.26R
HILLSDALE      CLEAR     42  42 100 CALM      30.28S
HOWELL         CLEAR     46  44  95 SW6       30.26S

CITY           SKY/WX    TMP DP  RH WIND       PRES   REMARKS
JACKSON        CLEAR     45  43  93 CALM      30.28S
LAMBERTVILLE   CLEAR     45  43  93 CALM      30.28S
LANSING        CLEAR     48  44  86 CALM      30.27S
LAPEER         FAIR      48  45  90 CALM      30.25S
MASON          CLEAR     45  44  96 CALM      30.27S
MONROE         CLEAR     46  45  93 CALM      30.26S
MT. CLEMENS    CLEAR     51  44  79 SW6       30.24R
PONTIAC        CLEAR     49  44  83 CALM      30.25S
PORT HOPE        N/A     51  46  83 SW7       30.20R
PORT HURON     CLEAR     43  43 100 CALM      30.25R
TRI CITIES     CLEAR     50  46  86 SW7       30.24S
TROY           CLEAR     51  45  79 SW5       30.27S
SAGINAW HB     CLEAR     50  50 100 SW5       30.24R
$$
MIZ043>046-050>051-056>058-064>065-071>073-077>080-230600-
SOUTHWEST LOWER MICHIGAN

CITY           SKY/WX    TMP DP  RH WIND       PRES   REMARKS
BATTLE CREEK   CLEAR     48  44  86 SW3       30.28F
BENTON HARBOR  CLEAR     44  44 100 CALM      30.28R
BIG RAPIDS     CLEAR     50  50  98 SW3       30.23S
COLDWATER      CLEAR     45  44  97 MISG      30.28S
FREMONT        FAIR      46  46  97 CALM      30.24F
HOLLAND        CLEAR     49  45  86 CALM      30.27S
GRAND RAPIDS   CLEAR     48  45  89 CALM      30.26F
IONIA          FAIR      48  46  90 SW6       30.25F
KALAMAZOO      CLEAR     46  43  89 CALM      30.28S
LUDINGTON      CLEAR     55  52  90 S6        30.22S
MARSHALL       CLEAR     43  42  97 S8        30.27S
MOUNT PLEASANT CLEAR     49  47  90 SW6       30.22F
MUSKEGON       CLEAR     50  46  86 CALM      30.25F
SOUTH HAVEN    CLEAR     47  46  97 CALM      30.27S
$$
MIZ016>042-230600-
NORTHERN LOWER MICHIGAN

CITY           SKY/WX    TMP DP  RH WIND       PRES   REMARKS
ALPENA         CLEAR     51  45  79 SW6       30.16S
BEAVER ISLAND  CLEAR     58  55  89 SW8       30.15S
BELLAIRE       CLEAR     51  47  85 SW3       30.19S
CADILLAC       CLEAR     46  46 100 SW5       30.21S
CHARLEVOIX     CLEAR     54  50  85 SW8       30.19S
FRANKFORT      CLEAR     57  53  86 CALM      30.20S
GAYLORD        CLEAR     50  45  83 SW9       30.18S
GRAYLING       CLEAR     49  46  89 SW5       30.20S
HARBOR SPRINGS CLEAR     57  49  77 W6        30.17R
HOUGHTON LAKE  CLEAR     51  46  83 SW8       30.21S
MANISTEE       CLEAR     46  43  87 CALM      30.22S
OSCODA         CLEAR     48  46  91 SW6       30.19R
PELLSTON       CLEAR     55  50  83 W6        30.16R
ROGERS CITY    CLEAR     51  47  87 SW10      30.16S
TRAVERSE CITY  CLEAR     55  46  71 SW3       30.19R
$$
MIZ007>008-015-230600-
EASTERN UPPER MICHIGAN

CITY           SKY/WX    TMP DP  RH WIND       PRES   REMARKS
KINROSS        CLEAR     52  52 100 SW5       30.12S
MACKINAC ISLAN CLEAR     58  55  89 SW12G17   30.13S
NEWBERRY       CLEAR     51  49  91 SW10      30.12R
S. S. MARIE    CLEAR     52  50  93 SW7       30.10F
MUNISING         N/A     56  48  74 SW9       30.10S
$$
MIZ004>006-011>014-085-230600-
CENTRAL UPPER MICHIGAN

CITY           SKY/WX    TMP DP  RH WIND       PRES   REMARKS
MANISTIQUE     CLEAR     55  51  86 CALM      30.13S
ESCANABA       CLEAR     52  46  82 W5        30.15S
MENOMINEE      CLEAR     54  48  82 W6        30.17S
SAWYER-GWINN   CLEAR     51  46  85 CALM      30.13R
$$
MIZ001>003-009>011-084-230600-
WESTERN UPPER MICHIGAN

CITY           SKY/WX    TMP DP  RH WIND       PRES   REMARKS
IRON MOUNTAIN  CLEAR     49  46  90 CALM      30.15R
HOUGHTON       CLEAR     59  50  72 W15       30.10R
COPPER HARBOR    N/A     66  49  54 NW9G22    30.05S
IRONWOOD       CLEAR     54  48  82 SW6       30.14S
$$

ABBREVIATIONS USED IN REMARKS
   TC - TEMPERATURE IN CELSIUS
  WCI - WIND CHILL INDEX
   HX - HEAT INDEX
  VSB - VISIBILITY




USA.gov is the U.S. government's official web portal to all federal, state and local government web resources and services.